Theta_e
304 304 304 306 306 305 304 305 306 306 306 307 307 307 306 305 302 299 295 297 295 295 300 299 300 303 305 308 311 312 311 308 305 309 313 314 315 311 312 315 317 319 321 325 327 326 326 326 328 327 325 324 323 322 322 322 321 320 321 321 320 320 318 316 315 314 313 312 311 310 308 308 306 305
302 303 302 303 303 304 304 306 306 306 307 308 308 308 307 307 305 303 300 299 298 296 295 299 299 299 303 304 307 310 311 305 306 309 311 313 314 309 309 312 316 318 318 320 324 326 326 326 327 326 326 326 325 324 323 322 322 322 322 322 320 319 317 316 315 314 313 312 311 310 309 308 307 306
302 302 302 303 304 304 304 305 306 307 307 308 308 309 308 308 307 306 304 301 299 302 298 299 299 298 299 303 305 305 306 305 306 309 311 312 306 304 308 308 312 315 316 316 317 321 325 326 325 325 326 325 325 325 325 325 324 323 324 322 320 318 317 317 316 314 313 312 311 310 309 309 308 307
302 303 303 304 304 305 305 306 307 307 307 308 309 309 309 308 307 307 305 302 301 300 300 298 298 298 298 301 304 305 304 304 303 308 310 311 304 306 309 305 307 310 312 313 314 315 318 321 323 324 324 323 322 321 321 321 320 318 316 315 317 318 317 317 316 314 314 312 311 310 309 309 308 307
303 304 304 305 306 306 306 306 308 308 309 309 309 308 308 307 306 305 304 302 300 295 295 298 298 298 298 299 302 303 304 304 305 306 306 307 308 308 309 309 305 305 308 310 311 311 311 311 314 317 317 317 317 317 316 315 314 312 313 314 314 315 316 317 315 315 314 312 311 310 310 309 308 307
305 305 306 307 308 309 308 308 308 308 307 307 307 307 306 306 305 306 305 303 302 299 293 298 295 297 298 297 299 302 302 303 301 304 303 303 305 305 305 306 307 303 305 307 308 309 308 308 308 309 310 311 311 310 310 309 310 309 310 311 312 313 314 315 314 314 313 312 311 310 309 309 308 307
306 307 307 307 307 308 308 308 308 307 307 306 306 305 305 305 306 305 306 304 299 298 291 292 295 295 297 298 297 300 300 299 301 302 301 302 302 302 303 305 303 303 303 304 306 306 306 306 306 306 306 306 306 307 307 308 308 308 308 309 309 309 310 310 311 311 310 310 309 309 308 309 308 307
307 307 306 307 307 306 306 305 305 305 305 304 305 304 304 305 305 305 304 305 302 294 293 292 291 294 295 294 295 297 297 299 299 299 295 296 298 299 299 300 300 301 302 303 303 304 304 304 305 305 305 305 304 305 305 305 305 306 306 306 307 307 307 307 308 309 309 308 307 307 307 307 307 307
307 306 306 306 307 306 306 305 305 305 305 305 305 305 304 304 305 303 302 302 299 296 295 291 290 289 289 287 290 297 296 291 292 292 294 297 296 294 293 293 295 299 300 300 301 301 302 302 303 303 303 303 303 303 302 302 301 302 303 303 304 306 306 306 306 307 307 306 305 304 304 304 304 305
306 306 306 306 306 306 305 305 304 305 305 305 304 304 304 303 302 302 300 298 298 300 297 292 291 292 292 292 288 288 293 293 291 291 290 291 291 292 294 294 292 294 295 296 298 299 300 300 301 301 301 301 301 301 300 300 299 300 301 302 303 304 304 304 304 305 305 305 304 303 303 302 302 303
306 306 306 306 306 306 306 305 304 304 304 304 303 303 303 302 301 300 299 294 296 298 292 290 290 290 289 289 291 290 290 290 291 292 291 293 290 291 292 292 291 290 292 293 294 294 294 295 296 298 299 299 299 299 298 298 298 299 301 301 302 303 303 303 303 303 303 304 304 303 303 302 301 300
306 306 306 306 306 306 306 306 305 305 303 304 303 304 303 302 301 300 298 296 296 294 292 291 290 287 288 287 286 288 290 293 293 291 293 295 293 291 289 290 291 290 290 291 292 292 293 293 293 296 296 296 296 296 295 295 295 296 298 300 301 302 303 303 303 302 302 302 303 302 302 301 300 300
305 305 306 306 306 304 299 298 299 300 301 304 303 302 303 302 301 300 298 298 296 292 292 290 289 290 289 288 289 289 290 294 296 290 291 292 290 288 290 289 288 287 289 288 290 290 289 291 291 292 291 292 292 291 293 293 294 295 297 298 299 300 301 302 302 302 301 301 302 302 301 301 300 299
304 305 305 304 297 296 295 295 296 297 297 298 303 303 303 302 301 299 298 296 295 294 292 291 291 291 291 290 291 292 290 289 286 289 290 292 288 289 290 290 287 287 289 289 290 289 287 290 290 289 289 288 288 287 287 287 290 293 296 297 298 298 299 300 301 301 301 301 301 301 301 300 299 298
301 302 303 304 298 295 293 296 294 296 296 296 297 298 298 299 303 300 298 296 294 294 294 292 291 292 292 290 289 289 287 287 288 288 289 290 289 290 291 291 289 287 289 289 290 290 286 288 289 286 286 284 283 283 284 293 294 295 296 297 297 298 298 299 300 301 301 301 301 300 300 299 298 297
301 301 301 301 302 301 301 301 299 296 294 295 295 295 296 296 298 299 301 298 294 294 293 291 292 291 292 290 289 288 288 289 287 286 288 288 290 290 291 290 289 287 287 288 287 287 285 285 285 284 283 283 283 285 289 294 294 295 296 296 296 297 297 298 299 300 300 301 300 300 299 298 297 296
301 300 299 298 299 302 294 297 301 300 298 293 293 293 293 294 296 298 298 298 300 298 296 294 292 292 290 289 290 290 289 289 289 286 287 287 288 289 290 288 286 286 286 287 286 286 285 285 284 283 282 282 283 284 289 292 293 294 295 295 295 296 296 297 298 299 299 300 299 298 298 297 296 296
301 300 299 298 297 297 297 298 299 300 299 298 297 296 296 298 295 294 295 295 295 296 298 295 294 291 291 293 291 290 291 291 289 289 289 287 287 288 287 286 285 286 286 288 287 286 284 283 283 283 282 282 284 284 288 290 292 293 293 294 294 295 296 297 297 298 298 299 298 297 297 296 296 295
301 300 300 299 298 298 298 297 298 298 298 298 297 296 296 297 298 297 296 296 296 295 296 297 297 294 293 290 290 291 291 292 291 291 289 289 288 286 285 286 286 286 285 285 289 289 284 282 282 281 281 282 284 283 284 288 291 292 292 293 294 295 296 297 297 298 298 297 297 296 296 295 295 294
300 299 299 298 298 297 298 294 294 296 298 298 295 295 294 293 293 295 295 295 295 297 297 295 294 292 294 292 289 289 289 287 286 287 288 288 288 288 288 287 285 285 285 285 286 285 284 284 285 282 281 282 282 282 281 285 289 291 292 293 295 296 297 297 297 297 297 297 296 296 295 294 294 293
298 298 298 298 298 297 297 294 294 296 295 296 295 294 294 293 293 290 290 293 294 294 295 294 293 293 294 294 293 293 292 289 289 289 289 288 288 289 288 286 286 286 285 285 285 286 285 283 282 281 280 280 280 280 280 282 286 289 290 293 296 297 297 297 297 296 296 296 295 295 294 294 293 292
297 297 291 293 298 297 297 294 294 295 296 297 296 294 292 291 292 290 290 291 291 291 291 291 292 292 293 293 293 293 293 292 292 293 291 289 290 290 289 288 286 284 284 286 286 287 284 281 280 281 280 280 278 278 279 281 282 285 286 290 294 296 296 297 296 296 295 295 295 294 294 293 292 289
294 294 291 290 294 296 296 294 295 295 295 297 295 294 293 292 292 292 291 291 290 289 289 287 289 288 289 289 289 290 291 291 290 290 291 290 290 289 288 287 286 288 287 286 287 287 282 282 281 282 281 280 277 274 277 280 281 282 282 286 288 294 294 295 295 295 295 294 294 294 293 292 290 286
290 291 291 291 293 295 295 294 295 295 295 296 295 295 295 293 293 291 290 290 290 289 289 287 287 287 287 287 288 288 289 288 288 288 290 290 291 290 288 288 288 288 288 285 287 286 280 282 280 278 281 283 282 277 276 279 280 281 281 284 286 289 290 291 293 294 294 294 294 293 293 292 289 285
293 291 291 291 292 294 294 294 294 294 295 294 295 295 295 295 293 290 291 289 289 290 289 288 288 288 287 287 288 288 288 288 287 287 288 288 288 291 289 289 288 287 286 284 288 286 281 281 278 279 277 276 275 275 275 276 279 279 280 281 284 286 287 288 289 289 293 293 293 293 293 291 289 287
292 292 292 292 291 292 293 293 294 294 294 294 292 294 295 293 292 292 291 290 290 290 289 289 288 288 288 288 287 287 287 288 287 287 288 287 286 287 289 290 290 289 288 285 290 284 282 280 281 281 278 279 275 274 275 277 277 278 280 281 281 283 286 287 287 287 287 288 289 291 291 291 290 289
293 292 292 291 289 291 292 293 294 294 294 292 293 294 293 292 291 290 290 290 290 290 290 289 289 288 288 288 287 287 287 287 287 287 287 286 286 285 285 284 286 287 287 286 287 286 284 281 283 283 280 279 277 274 273 275 277 276 279 279 280 281 282 285 286 286 286 287 287 291 291 291 290 289
292 292 291 291 290 291 292 293 293 294 292 292 294 293 293 291 289 290 290 290 290 290 289 289 289 288 288 288 287 287 288 287 287 286 286 285 285 284 284 284 284 285 285 286 286 286 285 283 283 283 284 283 281 280 279 274 273 275 279 278 279 279 280 282 284 284 285 285 286 287 286 286 287 287
292 291 291 290 290 290 291 292 292 292 291 292 292 292 290 288 290 290 291 290 290 290 290 290 289 289 288 289 288 287 287 286 286 285 283 283 283 283 283 283 282 283 284 286 286 285 285 284 284 283 283 284 283 281 280 278 276 276 278 279 280 279 279 280 282 283 283 284 285 285 285 286 285 285
290 291 290 290 289 289 289 290 290 290 291 290 290 289 288 291 291 290 290 290 290 290 290 290 289 289 288 287 286 286 286 287 286 285 284 284 284 285 285 284 282 282 281 282 283 284 285 285 285 284 284 283 284 281 278 278 277 276 278 279 278 278 278 279 280 282 283 283 284 284 284 284 284 284
290 289 288 289 288 289 288 288 289 289 289 289 289 289 290 290 290 290 291 291 291 291 290 289 288 287 287 286 286 286 286 286 286 286 286 285 285 285 285 283 279 279 281 281 281 281 284 285 285 285 284 282 282 281 280 280 277 276 277 278 279 280 277 278 279 280 281 282 282 282 282 282 282 283
289 288 287 287 287 287 288 289 289 288 289 289 289 290 290 290 289 289 289 289 290 290 289 289 287 286 286 286 286 286 286 286 285 286 286 285 284 285 284 282 279 278 279 280 281 280 280 282 284 284 285 284 281 279 280 280 279 277 277 278 278 275 276 278 278 279 279 281 281 280 280 281 281 281
288 288 288 287 287 288 288 288 288 288 288 288 289 288 289 289 289 289 290 290 289 289 288 287 286 286 286 286 286 286 285 285 285 285 285 285 285 284 285 284 279 279 279 278 277 279 280 279 280 281 281 281 282 281 280 278 277 278 278 277 278 277 276 278 278 278 279 280 280 279 279 278 279 280
289 288 289 289 288 288 288 288 288 288 288 288 287 288 287 288 288 289 289 289 289 288 288 287 286 286 286 285 286 286 284 283 284 285 285 284 284 284 284 282 280 282 281 277 277 278 279 279 280 280 280 279 279 280 282 281 279 277 277 277 277 277 277 276 277 277 278 278 278 278 278 278 278 277
291 289 289 289 289 289 289 288 288 288 288 288 288 287 287 288 288 288 288 288 288 288 287 287 287 287 286 286 286 285 284 283 283 284 284 284 284 284 284 282 281 281 279 276 277 278 279 279 280 279 279 279 279 280 280 280 279 277 277 276 277 277 276 276 276 277 277 277 277 278 277 278 278 277
291 291 290 289 289 289 289 289 288 288 288 288 288 287 287 287 287 287 287 287 288 287 287 287 286 286 286 286 286 285 284 283 283 283 282 283 283 284 284 283 281 281 280 279 278 278 279 280 280 280 278 276 276 276 277 280 280 278 277 275 275 276 274 274 274 275 276 276 276 277 276 276 277 275
290 290 290 290 290 289 289 289 288 288 288 288 288 287 287 287 286 287 287 287 287 287 287 287 286 286 286 286 285 285 284 283 282 282 282 282 283 283 283 281 281 280 279 279 278 277 279 279 280 280 279 277 276 276 278 275 278 280 279 277 274 275 273 272 273 273 274 275 275 276 276 275 274 272
290 290 290 290 289 289 289 289 288 288 288 288 288 287 288 287 287 286 286 287 287 287 287 287 286 286 286 286 285 284 283 283 283 282 282 282 282 282 282 281 279 279 279 277 277 277 278 279 279 280 280 278 277 277 276 275 275 277 280 279 275 273 273 272 272 272 273 273 275 273 273 274 273 270
290 290 290 290 290 289 288 288 288 288 288 288 287 287 287 286 286 286 286 287 287 286 286 286 286 286 286 286 285 284 283 282 282 282 282 282 282 282 282 281 279 279 276 274 276 276 277 278 279 280 280 280 279 279 279 276 275 274 275 280 277 272 273 274 273 272 272 272 271 270 270 269 272 275
289 290 290 290 290 289 289 288 288 288 288 288 287 287 287 286 286 286 286 286 286 286 286 286 286 286 286 286 285 285 284 283 283 282 282 282 282 282 282 281 279 277 276 274 273 275 276 277 278 279 280 279 277 277 276 275 272 271 273 277 280 276 274 274 273 271 268 270 271 271 270 270 271 269
289 289 289 290 290 289 289 289 288 288 288 288 287 287 287 287 286 286 286 286 286 286 286 286 286 286 286 286 285 285 283 283 283 283 282 282 282 282 282 281 279 278 276 273 274 274 275 278 278 279 277 276 276 278 277 275 273 272 272 273 277 279 278 276 274 272 268 267 269 268 269 269 267 265
288 289 289 289 289 288 289 288 288 288 288 287 287 287 287 287 286 286 286 286 286 286 286 286 286 286 286 286 286 285 284 283 283 282 282 282 281 281 281 281 279 278 277 275 275 275 277 277 277 277 276 276 277 277 275 276 275 273 271 271 272 277 278 277 277 275 270 269 267 263 263 264 263 263
288 288 289 288 289 288 288 288 288 288 288 287 287 287 287 286 286 286 286 286 286 286 286 286 286 286 286 286 286 286 285 284 283 283 282 282 282 281 280 280 280 279 279 279 277 276 276 276 276 276 276 276 276 277 276 275 275 272 270 271 272 274 275 278 277 277 275 275 274 269 265 263 263 264
287 288 288 288 288 288 288 288 287 288 287 287 287 287 287 286 286 286 286 286 286 286 286 286 286 286 286 286 286 286 285 285 284 283 283 282 282 282 281 281 280 279 279 276 275 274 275 275 276 276 275 275 275 275 275 274 273 272 272 270 271 273 273 273 274 276 276 276 276 276 276 275 274 274
287 287 288 288 288 288 287 288 287 287 287 287 287 287 286 286 286 286 286 286 286 286 286 286 286 286 286 286 286 285 286 285 285 284 284 283 282 282 281 281 280 279 277 275 273 273 274 274 275 275 275 275 275 275 275 274 273 270 270 271 271 272 272 272 272 271 270 267 271 276 277 276 275 276
Wind_Speed
7 6 8 8 7 6 5 5 6 6 5 6 6 7 8 7 9 6 4 4 4 3 5 3 3 5 4 6 6 8 9 8 10 9 11 11 10 16 21 20 19 20 20 21 22 20 19 22 22 23 24 24 24 24 24 24 22 23 23 25 24 23 21 19 18 18 19 21 19 20 19 16 16 17
6 6 6 6 6 5 5 6 6 6 7 6 7 7 7 7 9 7 8 5 4 3 2 3 4 2 5 4 5 6 7 11 14 10 10 9 10 17 18 18 20 20 20 19 18 17 18 18 18 18 21 23 25 23 22 22 23 23 24 25 23 21 20 19 18 18 20 21 22 20 18 17 17 17
7 7 7 6 6 5 6 6 6 6 6 6 6 7 6 6 8 9 8 8 2 3 4 5 4 3 3 3 3 3 4 8 12 10 10 9 10 14 18 21 21 22 22 18 16 15 18 18 18 16 12 12 15 14 16 20 21 20 20 20 21 17 15 16 16 17 20 21 21 19 18 18 19 19
7 7 7 7 6 6 5 6 6 6 6 7 7 7 7 7 7 7 6 7 6 3 5 3 3 3 3 2 4 3 3 6 12 8 10 12 14 9 8 16 19 18 17 16 14 16 15 15 14 13 13 12 8 9 9 9 8 8 8 9 9 10 13 14 16 16 18 20 20 20 19 19 21 19
7 7 7 6 6 5 6 6 6 6 7 6 6 5 5 6 4 5 5 5 6 2 1 0 1 0 3 3 3 5 5 5 7 7 5 5 7 8 8 9 14 15 14 16 16 12 12 11 10 7 6 7 7 6 6 6 5 5 4 4 4 3 8 12 14 16 17 19 19 21 19 20 21 19
6 6 7 7 7 7 8 7 7 5 5 5 5 5 5 5 4 4 5 6 5 6 1 0 2 1 1 3 2 5 6 6 4 7 5 5 5 5 4 5 6 12 14 12 11 11 7 6 6 6 6 5 5 5 5 4 4 4 4 3 2 2 6 10 12 13 15 19 21 22 21 22 23 21
6 7 7 7 5 6 7 7 7 6 6 5 6 5 4 5 4 5 7 6 5 5 4 1 1 1 1 3 3 1 2 3 3 5 5 4 3 3 4 4 2 5 8 8 8 7 5 5 5 5 5 4 4 5 5 4 4 4 2 2 3 4 6 9 12 14 16 18 20 20 21 22 24 22
7 8 7 7 7 6 6 5 4 4 5 5 5 5 5 5 6 6 6 7 5 3 4 0 2 0 2 2 0 3 3 5 4 3 2 2 3 2 1 3 3 4 4 3 4 5 4 3 4 4 4 4 4 5 5 5 5 5 4 4 4 5 7 9 12 14 16 17 19 20 20 20 23 23
8 8 8 6 7 8 8 7 6 5 6 6 5 6 5 5 5 5 6 6 4 4 4 2 0 0 1 1 1 3 5 3 3 3 3 2 3 3 2 2 2 4 5 5 4 3 4 3 3 3 2 1 2 3 4 4 4 5 6 6 5 6 8 10 12 14 17 19 20 20 20 21 19 20
8 8 7 7 7 7 7 6 6 6 7 6 6 6 6 6 5 6 6 5 6 5 3 4 1 0 2 1 1 1 1 5 3 3 3 3 2 3 2 1 1 2 2 2 1 3 3 3 2 2 2 3 3 1 2 3 4 4 5 6 7 7 9 10 12 14 16 17 19 22 20 19 18 19
7 7 7 7 7 7 8 7 7 7 7 6 6 6 7 6 6 6 6 5 5 5 4 2 3 3 1 1 2 1 1 2 3 4 3 2 0 1 4 4 0 1 2 3 4 2 2 3 2 2 1 1 1 2 3 3 4 5 6 7 7 8 9 10 12 13 15 17 18 19 20 19 19 18
7 8 8 7 7 7 6 6 6 7 7 5 5 6 6 6 7 6 5 5 5 4 4 4 4 2 2 1 2 1 3 2 0 2 4 7 5 4 1 1 3 0 2 1 0 2 2 2 2 2 1 2 3 4 4 4 4 5 6 6 8 8 10 11 13 13 14 15 16 18 18 19 17 16
7 7 7 7 7 8 9 11 9 9 8 6 6 6 6 6 7 6 6 6 6 4 5 3 3 4 3 3 3 3 4 9 8 3 3 2 2 3 2 1 1 2 3 2 2 2 2 1 1 0 2 2 4 3 3 3 4 6 6 7 9 9 9 9 9 10 11 13 14 15 17 19 19 18
7 7 6 7 10 11 12 12 12 12 12 12 9 7 6 7 7 7 6 7 7 7 6 6 6 6 6 7 8 7 4 2 4 5 5 5 2 4 2 1 1 1 3 3 2 2 0 2 1 1 1 4 4 3 3 3 3 4 6 7 8 8 9 9 9 10 11 12 14 17 17 16 17 16
7 6 7 6 9 11 11 11 13 12 12 12 12 12 13 11 10 7 7 7 8 8 8 6 6 7 8 8 5 5 4 3 4 4 5 4 4 4 4 4 1 0 3 3 3 0 3 1 2 3 4 4 4 3 3 5 5 6 6 7 7 8 8 9 9 9 10 11 12 12 15 17 17 18
8 8 7 6 6 7 8 7 8 10 12 12 12 11 12 13 13 13 11 9 7 7 7 7 8 7 7 5 6 5 5 5 4 3 5 4 5 5 5 3 2 0 1 4 3 1 2 2 3 4 4 3 2 2 5 7 7 7 8 8 9 9 9 9 9 9 9 10 11 14 16 17 19 17
7 7 6 6 6 6 11 9 7 6 7 9 11 11 11 13 14 13 14 13 13 10 9 9 9 10 6 6 8 7 6 5 7 5 4 4 5 4 5 3 1 2 2 3 2 2 1 1 2 4 2 2 2 3 6 9 9 10 10 10 10 9 8 8 9 9 9 10 10 14 16 17 17 18
8 7 7 6 6 5 6 6 7 6 6 6 6 5 4 5 9 12 12 12 10 10 10 9 10 7 7 8 6 8 8 10 8 8 6 5 5 5 3 2 2 1 1 4 4 3 1 1 2 3 2 2 2 2 7 11 11 11 11 11 11 10 9 8 8 8 9 6 12 15 17 17 17 17
8 7 7 7 7 7 6 6 8 7 6 6 6 5 5 6 6 7 6 5 5 6 5 7 6 7 7 5 7 8 7 7 5 7 7 8 6 6 5 5 4 3 1 1 0 2 0 1 2 1 1 3 1 3 6 13 12 12 12 11 11 10 9 8 7 7 4 10 15 16 17 16 16 16
6 6 7 7 6 6 7 8 12 10 7 7 6 6 5 4 4 5 3 6 6 7 6 5 5 6 8 9 9 9 7 6 7 7 8 8 6 7 4 3 0 1 1 0 1 3 1 1 1 1 1 2 3 5 5 9 12 12 12 11 11 8 6 6 4 3 8 12 14 15 15 16 15 15
6 6 6 6 6 6 7 9 12 12 11 6 7 6 6 5 4 4 1 3 5 5 4 6 7 9 11 12 12 14 15 11 10 9 8 5 6 6 4 1 2 3 2 2 2 4 3 1 1 2 1 2 2 4 5 5 9 12 11 11 11 8 6 4 4 9 11 12 14 14 15 15 14 15
6 7 11 9 7 7 7 10 12 12 11 7 7 7 6 5 5 4 3 4 4 6 8 7 8 9 10 11 12 14 14 15 11 10 8 9 8 6 5 5 3 1 1 3 3 3 2 2 0 2 1 2 3 4 4 6 7 10 11 13 12 8 4 6 8 11 12 13 13 14 16 17 15 8
5 5 7 11 9 8 8 12 13 14 11 7 7 8 7 7 7 8 7 7 6 5 5 4 7 6 6 6 6 8 14 14 8 4 7 9 8 6 4 5 4 2 3 6 7 4 3 3 1 1 1 3 1 1 4 5 6 6 6 6 7 9 6 8 10 11 12 13 15 17 17 17 12 6
4 4 5 7 10 11 11 12 14 14 14 8 7 7 7 7 8 5 6 5 6 5 5 4 5 6 4 4 5 5 6 5 3 4 7 9 8 7 7 6 4 3 2 2 6 4 1 1 3 3 2 1 0 3 4 5 5 5 6 6 5 8 7 8 8 11 12 13 16 16 17 17 12 6
7 6 6 5 9 11 11 12 13 14 15 11 8 8 8 9 5 9 6 5 7 6 6 5 6 5 4 4 4 5 5 4 3 3 4 4 3 7 6 5 3 2 2 2 7 4 3 3 4 2 4 4 1 2 2 2 4 4 5 4 4 5 4 4 4 4 9 13 14 16 16 16 14 8
6 7 6 6 9 11 11 12 13 14 14 12 7 9 8 8 12 10 6 6 6 6 6 5 5 5 5 5 5 4 4 4 4 5 5 4 4 3 2 5 6 3 2 4 9 5 7 2 4 4 2 3 2 2 2 2 3 3 3 4 4 4 3 4 4 4 4 4 5 8 11 16 13 12
7 5 6 5 10 15 13 13 13 13 14 11 7 10 10 11 12 9 6 6 6 6 6 6 6 5 5 6 6 6 6 4 4 5 5 5 5 6 5 6 4 3 3 7 6 4 5 4 3 6 4 3 5 2 2 1 0 3 2 4 4 4 4 2 4 3 3 3 4 9 11 13 14 12
6 7 6 7 10 13 14 14 13 13 13 9 11 11 11 13 12 7 6 6 6 6 6 6 6 6 5 5 5 5 5 6 6 6 6 6 5 6 6 6 7 5 5 5 5 3 5 6 5 2 6 7 5 4 3 2 1 1 2 1 2 3 3 3 3 3 2 3 4 4 4 3 5 7
6 7 10 9 11 12 12 13 12 10 12 13 12 13 14 12 6 7 7 7 7 7 7 7 6 6 6 5 3 5 6 7 7 7 7 6 6 7 8 8 7 6 5 4 4 3 3 6 7 5 3 3 4 2 3 3 3 2 2 3 1 1 2 2 1 3 3 3 4 4 5 5 5 6
11 11 10 10 9 8 7 5 4 5 7 11 12 13 13 8 7 7 7 7 8 8 7 7 7 6 5 4 5 6 7 8 7 7 6 7 5 5 6 7 7 6 6 5 4 4 3 4 6 7 5 4 3 4 4 6 2 0 2 2 2 1 0 1 1 2 4 4 4 4 3 4 5 6
6 7 6 5 6 5 9 8 7 6 6 6 6 6 6 6 6 7 8 10 9 8 7 6 5 6 5 6 7 7 7 6 5 4 7 6 5 5 5 7 6 5 5 5 5 4 3 4 5 6 7 4 3 3 4 3 5 3 3 2 4 3 2 2 2 3 3 3 3 3 3 3 4 3
6 6 6 7 4 4 4 3 3 3 4 5 6 6 6 6 5 5 5 5 4 4 5 5 6 7 7 7 7 6 6 6 5 5 5 6 6 5 6 6 4 3 4 4 5 5 5 4 3 3 4 6 5 3 3 3 4 4 3 3 2 1 1 4 3 2 2 3 3 3 3 4 4 4
6 6 5 5 5 5 6 5 4 4 5 4 5 5 5 5 6 6 6 7 7 7 8 8 9 9 7 7 6 6 7 6 6 5 6 5 6 4 3 5 7 8 6 5 3 4 4 5 6 5 4 4 3 8 6 3 1 3 4 4 4 3 1 0 2 3 2 3 3 3 3 2 2 3
5 5 5 6 6 6 6 6 6 6 6 6 6 5 5 5 6 6 6 6 7 7 8 8 9 8 8 8 8 7 8 7 6 5 6 6 6 6 5 5 5 3 5 7 6 5 4 4 5 6 6 5 5 3 2 4 4 4 3 3 4 3 2 2 2 3 3 2 3 4 3 3 2 1
9 7 8 7 7 7 6 6 7 7 7 7 7 6 6 5 6 6 6 6 6 7 8 7 7 8 9 9 8 8 9 9 7 6 4 6 6 5 6 5 5 5 6 8 6 4 5 5 5 5 4 3 2 2 4 2 3 3 3 2 2 3 2 2 3 3 4 2 2 4 3 2 3 2
8 8 8 7 8 7 8 7 6 6 7 7 7 7 7 6 6 7 7 6 7 7 8 8 8 8 7 8 7 7 8 7 8 7 6 5 6 5 5 6 6 6 6 7 6 5 5 5 6 6 5 3 3 0 1 4 3 4 5 3 3 3 2 2 1 2 4 3 2 3 4 4 3 2
9 8 9 8 8 8 9 7 7 7 7 7 7 7 8 8 7 5 4 6 7 7 7 7 8 7 7 7 7 7 7 8 8 7 6 5 5 6 6 6 5 5 6 5 5 5 5 5 4 5 6 5 5 7 2 2 2 2 2 3 3 2 4 3 3 3 2 3 3 3 2 1 1 1
10 9 9 9 9 8 7 7 7 7 7 7 7 7 6 6 6 7 7 6 6 6 7 7 6 7 7 8 9 8 7 6 6 7 6 6 7 6 6 7 6 5 5 5 5 5 4 5 6 5 7 8 7 5 3 0 1 1 1 2 5 4 4 4 4 5 3 2 3 2 1 1 1 0
9 9 10 10 9 8 9 9 9 9 8 7 7 7 7 7 7 7 7 7 6 7 7 7 7 7 8 7 7 8 8 7 7 7 7 7 7 8 7 6 6 5 6 6 4 4 4 5 5 5 5 5 6 4 4 4 2 0 3 2 5 8 5 6 5 3 4 4 3 2 2 0 1 1
9 8 8 8 8 8 7 7 7 8 9 8 8 7 8 8 8 8 8 7 7 6 7 7 8 7 6 7 7 7 7 9 8 7 8 7 7 7 7 7 8 7 6 6 6 6 5 6 6 5 4 3 4 4 5 5 3 2 2 2 8 7 5 5 4 5 3 3 4 4 3 1 2 1
9 9 9 8 7 7 8 8 8 8 8 8 8 7 7 7 8 8 8 8 7 7 7 7 7 8 8 8 8 9 8 7 7 7 8 7 8 7 8 8 6 6 8 10 8 8 8 5 4 7 7 5 5 4 5 4 3 1 1 2 3 4 6 6 4 5 4 4 4 4 3 3 1 2
9 9 7 7 8 7 8 8 8 8 8 8 8 8 7 7 7 9 8 9 8 7 7 7 7 7 7 8 8 8 9 8 8 8 8 8 8 7 9 8 7 6 7 11 10 9 4 5 6 6 5 5 4 4 4 5 4 3 2 1 2 2 5 5 4 5 7 8 6 3 2 1 1 1
8 8 8 7 7 7 7 8 8 8 8 8 8 8 8 7 7 9 8 8 8 7 7 7 7 7 7 7 8 8 8 9 8 8 9 8 8 8 7 7 7 8 8 6 4 5 6 5 5 5 4 4 4 4 4 4 3 4 3 2 2 1 2 3 4 6 8 9 7 5 4 4 4 1
8 8 7 7 7 7 7 8 8 8 8 8 8 8 8 8 8 8 8 8 8 8 7 7 7 8 8 8 8 8 8 9 8 9 8 8 8 8 8 8 7 6 5 6 6 5 5 5 5 5 6 5 4 5 4 4 4 3 4 3 2 3 3 2 1 4 4 3 3 5 3 4 3 4
8 8 7 7 7 7 7 7 7 8 8 8 8 8 8 8 8 7 7 8 7 7 8 8 8 8 8 8 9 9 8 9 9 8 8 7 7 7 7 8 7 7 6 7 8 8 5 5 4 4 3 3 4 4 3 4 4 6 5 4 4 4 4 3 3 2 1 1 3 2 3 3 3 2
Wind_Direction
195 200 197 201 207 211 195 202 205 210 209 211 212 202 219 221 255 261 243 238 242 281 209 231 280 210 206 197 188 185 192 181 179 197 196 193 191 200 199 198 204 213 224 230 230 227 225 226 228 229 227 225 224 220 220 225 228 232 234 239 238 235 230 226 223 213 208 205 206 212 215 214 212 218
190 198 197 197 208 207 192 205 205 206 210 213 216 217 219 217 238 246 260 260 184 247 291 219 254 257 225 205 200 194 190 176 175 187 200 206 194 191 197 203 208 214 221 226 232 236 235 230 233 235 236 235 236 238 240 240 239 236 237 239 242 238 229 226 219 212 205 204 207 212 215 210 208 220
182 194 199 195 206 199 204 209 210 212 211 220 219 226 221 222 224 242 244 259 247 181 235 255 250 226 221 199 186 190 189 182 182 182 188 196 204 192 197 200 208 214 217 221 226 232 239 244 245 243 245 258 268 270 251 247 253 262 264 264 264 263 241 234 218 214 210 205 206 210 213 206 212 220
186 189 197 196 199 194 196 210 213 217 218 217 222 224 226 221 222 229 238 246 255 196 211 243 246 212 176 175 169 193 175 171 182 186 197 201 190 185 199 215 217 218 217 216 220 228 238 247 254 260 268 278 301 306 313 321 337 358 3 11 346 274 244 234 224 214 214 207 205 208 209 205 214 220
187 193 198 201 203 191 205 216 220 220 222 217 221 220 216 222 214 211 224 245 262 288 310 281 214 188 146 186 185 170 182 172 191 195 195 191 192 195 201 199 208 215 217 217 222 229 240 251 264 280 303 301 307 314 320 329 8 34 28 13 7 303 262 253 230 215 215 209 207 212 203 204 215 218
193 195 207 218 211 200 217 216 209 201 204 204 207 207 197 205 205 195 216 240 253 255 295 42 18 90 206 205 220 192 182 193 174 189 185 189 186 180 163 181 195 203 217 221 227 238 253 275 288 294 295 313 329 320 331 7 23 18 18 1 335 263 244 242 222 212 205 208 207 211 211 209 214 214
192 201 207 207 191 194 205 209 217 207 202 190 196 197 190 208 212 204 212 226 230 233 252 178 182 203 220 212 211 180 140 138 168 176 181 178 181 167 167 178 160 181 214 225 241 247 257 272 285 289 301 310 307 305 312 315 314 320 315 295 274 246 229 226 214 205 199 204 207 207 209 208 214 217
195 200 201 205 196 196 204 194 184 187 189 195 201 207 203 204 214 213 208 215 205 189 205 298 175 282 173 269 95 148 126 137 140 153 100 90 133 124 108 148 161 150 168 176 212 227 234 242 253 266 277 280 278 280 283 282 280 274 265 258 249 234 224 219 211 206 203 203 205 207 206 206 214 216
195 195 202 199 194 196 208 211 219 211 212 208 200 206 203 200 208 205 195 203 184 162 179 200 0 326 78 270 278 178 148 98 91 98 128 150 149 125 78 87 102 134 140 152 166 160 159 177 190 207 226 259 271 271 273 268 256 246 251 256 254 236 226 223 219 213 207 205 204 203 208 207 208 211
190 194 199 196 190 192 204 205 200 200 208 201 197 197 197 199 203 199 201 186 183 185 185 163 153 265 167 104 4 316 68 140 105 80 55 53 68 133 163 143 76 89 132 160 141 145 154 162 168 140 167 231 239 239 266 262 264 261 251 247 240 234 228 225 225 222 217 210 206 205 206 201 200 202
187 190 197 198 196 199 203 203 198 199 200 192 195 192 194 195 194 198 193 182 175 172 147 123 164 161 23 144 145 357 42 102 131 144 122 168 305 139 176 206 351 71 91 62 92 119 143 150 154 145 137 252 282 269 262 268 271 273 266 258 251 245 240 232 230 227 224 219 214 208 203 197 193 191
189 191 193 199 199 199 201 200 200 194 194 181 192 194 194 190 190 192 180 161 152 150 165 165 169 158 154 58 30 24 85 88 27 191 161 189 200 217 210 171 174 54 122 169 124 39 92 69 78 78 29 298 291 293 295 298 303 291 288 279 269 260 247 240 235 233 231 227 220 212 202 195 187 182
188 190 194 200 201 201 199 200 202 200 188 183 195 192 186 183 188 188 177 164 152 157 162 135 103 137 132 165 136 140 167 196 198 155 136 137 126 156 168 272 166 158 153 167 162 205 161 147 304 356 324 352 357 7 348 315 298 290 281 277 278 280 281 278 267 255 244 232 222 208 198 191 183 184
189 191 196 201 202 202 203 200 203 205 201 195 190 185 184 183 187 185 177 165 164 161 166 171 160 161 187 188 195 190 210 105 76 120 147 170 140 101 120 328 268 215 136 135 193 261 57 145 97 57 38 353 25 11 2 336 321 305 304 296 290 285 283 279 273 264 252 238 225 216 201 181 175 173
191 197 198 201 204 205 206 204 204 208 209 207 203 193 188 183 181 182 179 179 167 166 179 173 171 188 195 206 192 192 159 152 156 156 167 145 135 149 155 215 335 30 150 159 178 243 20 140 155 62 49 18 17 17 355 348 341 333 328 320 312 307 300 295 285 274 263 246 231 201 180 171 168 168
189 193 196 202 198 201 200 200 206 213 214 211 215 210 196 193 193 184 179 177 176 172 168 168 194 187 204 184 179 183 158 163 127 131 147 165 163 166 192 178 194 275 135 135 139 166 2 61 100 87 35 9 358 358 11 17 11 10 2 352 342 334 324 311 299 283 269 252 218 188 172 165 162 153
187 186 187 193 199 199 199 199 201 199 213 220 222 217 206 200 199 200 199 182 179 179 175 182 192 195 173 168 207 188 163 138 144 141 149 173 171 176 182 178 156 234 196 113 101 112 357 46 93 88 29 344 333 351 10 19 17 13 8 358 349 336 323 312 301 291 278 252 201 172 163 157 149 151
188 187 180 182 194 201 194 198 198 196 201 198 202 207 200 201 215 215 207 199 189 177 182 180 198 198 170 190 167 174 156 152 162 166 180 162 163 168 152 140 119 98 219 158 145 89 8 354 97 90 356 337 345 17 11 17 15 10 1 352 342 334 325 316 304 291 276 222 160 155 157 150 148 151
188 188 184 182 187 188 191 194 191 188 188 183 188 187 190 198 197 200 202 196 185 185 202 196 194 171 177 140 151 163 179 172 161 162 165 169 146 121 108 82 78 77 17 41 73 141 258 303 88 86 337 321 10 21 8 14 12 5 354 346 337 328 321 316 313 298 214 151 149 153 152 147 147 153
185 183 180 180 183 184 191 196 188 184 173 174 177 183 187 196 197 205 216 202 193 191 195 190 169 164 167 153 153 162 151 114 113 90 84 89 105 117 110 115 311 121 284 72 109 114 188 286 132 145 306 342 30 12 12 359 5 2 356 349 345 338 327 332 323 149 142 144 145 146 141 142 143 147
178 179 181 180 180 181 194 193 187 186 168 172 176 176 176 175 169 180 73 142 160 175 164 133 141 152 153 146 147 151 151 143 136 120 110 135 141 133 132 124 128 198 195 245 169 123 140 296 122 124 27 48 51 18 0 354 356 357 354 352 4 6 1 3 110 123 129 132 138 136 138 139 137 140
176 182 184 182 179 182 195 186 188 183 171 172 175 168 158 161 171 176 147 105 72 88 100 112 125 137 144 142 147 150 147 148 148 141 161 173 154 162 161 152 175 156 260 227 191 95 151 139 27 112 147 99 54 12 0 359 356 359 356 352 0 20 74 116 124 125 127 131 132 139 142 142 138 128
169 183 190 190 185 188 186 181 186 180 176 175 171 170 165 177 190 190 166 148 139 134 114 96 93 77 101 119 136 151 154 159 160 132 136 146 159 155 151 132 120 150 237 209 185 137 196 136 352 100 70 34 335 38 353 3 6 2 355 358 2 22 111 121 126 129 130 135 143 145 144 143 129 114
185 186 192 199 195 190 182 182 184 183 180 176 174 160 177 179 210 169 167 165 152 144 133 119 94 106 107 106 110 125 140 147 119 121 142 160 155 144 153 163 156 156 201 193 188 137 121 122 104 9 110 122 19 337 356 4 12 360 4 4 31 12 58 94 120 127 133 142 146 148 148 144 134 130
178 189 198 192 193 191 185 184 186 185 187 179 165 175 183 198 165 142 154 157 143 128 121 113 111 115 108 109 114 130 138 138 104 96 113 116 124 144 149 156 157 132 199 207 177 108 141 127 118 95 40 65 88 34 330 328 354 5 359 356 24 21 48 65 82 100 135 144 147 151 152 147 146 145
184 188 185 193 184 186 187 187 187 188 189 179 162 193 186 135 140 160 154 141 135 129 129 124 124 131 132 134 137 137 143 145 127 115 113 104 81 76 106 146 157 147 201 190 174 134 127 126 159 127 101 109 50 57 30 354 316 330 339 5 26 10 39 86 88 102 112 132 142 155 159 156 157 158
186 179 186 200 184 178 185 189 190 189 187 177 188 181 152 154 147 133 138 144 140 139 142 141 146 149 145 143 150 152 152 148 125 104 102 95 94 84 67 51 68 124 143 149 166 134 107 120 164 142 144 139 114 50 70 130 160 318 10 17 14 18 357 44 112 116 119 128 132 151 161 166 155 157
176 177 185 185 186 189 185 187 189 191 183 185 184 166 158 146 145 140 140 151 152 148 149 153 154 162 165 148 150 166 154 140 122 105 96 89 91 95 76 64 59 53 91 131 139 120 117 126 152 139 141 148 143 152 171 254 238 251 124 339 33 34 15 18 77 86 94 119 122 131 125 147 148 148
175 183 182 178 180 192 190 186 187 189 188 190 179 169 155 147 145 150 153 153 148 156 169 171 167 168 172 162 144 127 120 112 100 95 78 83 86 90 87 77 63 47 50 84 99 76 110 137 145 147 126 133 125 149 120 151 161 174 144 130 116 2 11 3 71 130 135 136 150 147 162 159 142 149
165 173 177 174 175 178 184 171 167 175 194 194 181 167 156 156 157 158 156 156 163 174 172 168 171 165 142 126 127 124 125 129 138 132 127 123 117 119 109 86 52 45 39 34 52 72 97 119 135 138 118 101 120 141 146 133 127 68 162 158 136 67 328 102 103 132 140 156 159 159 142 140 145 150
154 152 150 159 161 160 169 176 184 183 165 152 151 157 168 166 165 165 168 171 173 170 164 161 148 139 128 115 121 137 138 133 137 143 139 130 130 123 107 100 85 58 35 40 42 36 67 112 133 139 130 122 81 103 151 117 113 130 188 168 169 179 187 147 158 154 155 138 132 110 105 111 127 150
130 123 112 107 99 105 114 125 121 131 149 165 160 167 172 170 162 159 144 129 137 139 140 127 123 123 138 143 140 134 133 134 137 144 135 134 133 132 125 102 91 93 76 54 49 39 47 50 98 99 128 152 139 135 103 80 138 156 154 178 194 28 148 173 165 152 132 129 123 140 142 157 163 166
111 114 125 126 129 140 151 152 162 158 151 160 166 162 165 156 155 154 161 165 164 151 141 147 150 149 140 134 134 135 127 133 139 137 116 115 128 133 126 139 141 142 138 122 49 47 60 60 48 72 73 54 113 145 135 111 112 156 168 173 186 197 209 170 151 145 116 122 146 147 160 164 167 169
130 150 162 167 160 161 163 171 173 172 169 160 162 172 165 162 164 170 170 164 156 154 153 149 148 151 146 145 147 143 134 122 130 128 132 133 138 145 151 135 158 152 140 120 114 125 107 86 91 75 67 63 47 49 96 138 165 180 177 157 166 189 160 146 119 140 147 128 152 149 176 208 197 153
172 171 179 185 179 174 174 181 183 173 170 173 169 169 169 169 170 168 164 161 152 151 147 150 152 152 153 151 148 142 138 134 133 129 126 135 148 155 152 148 156 156 143 102 134 153 134 136 124 100 69 55 50 17 46 63 144 150 129 131 146 151 149 178 150 148 146 92 127 177 214 228 200 155
181 184 189 187 188 178 184 190 177 175 175 174 172 161 164 174 173 169 171 160 154 152 149 150 152 154 149 146 143 138 140 137 131 140 142 152 157 156 158 164 161 163 158 165 157 159 158 155 156 142 131 104 112 162 287 30 45 154 158 177 160 140 116 145 123 133 136 138 141 175 194 216 203 144
190 194 194 197 193 185 193 182 177 179 179 173 172 174 173 171 171 165 147 149 151 154 154 149 152 152 148 144 138 138 141 145 141 151 155 159 162 160 158 153 162 156 159 159 150 160 160 162 166 146 141 139 166 208 183 344 15 38 170 153 124 136 148 159 153 154 127 126 142 188 194 143 88 41
197 190 194 197 195 194 187 177 172 177 180 178 173 171 173 160 149 146 143 156 158 151 150 152 149 148 148 148 143 142 144 149 146 155 162 163 165 169 168 156 157 161 152 139 155 172 177 165 169 172 164 174 167 176 211 315 5 327 43 127 150 163 159 156 180 186 170 145 159 144 117 166 99 123
197 194 195 196 193 186 187 184 178 178 175 173 174 173 163 152 150 149 161 164 161 156 151 148 152 156 151 152 147 147 154 154 161 167 168 175 173 167 160 157 144 145 130 119 151 165 177 179 184 180 181 174 176 192 166 162 202 165 341 301 150 129 193 196 195 166 145 148 129 78 61 293 185 109
202 199 200 196 196 187 187 177 179 176 173 176 172 168 162 162 163 164 167 166 165 165 160 158 154 151 152 151 148 146 156 164 167 170 173 171 173 168 161 159 155 152 150 153 160 181 191 198 183 184 162 112 107 106 97 97 97 28 2 281 182 172 187 196 194 158 152 150 129 145 169 41 180 308
198 200 200 193 191 186 185 183 179 172 171 166 165 165 169 166 165 172 172 168 165 164 163 159 158 160 158 159 160 160 165 167 168 170 170 171 169 167 160 152 152 158 159 171 172 182 201 188 121 100 104 116 122 114 90 92 101 142 167 319 321 238 189 198 175 160 146 158 149 147 148 173 192 18
196 200 191 187 190 184 180 180 176 174 171 167 166 166 169 170 175 163 163 166 167 167 162 160 161 161 163 164 163 166 168 167 169 171 172 170 168 166 164 161 162 168 157 155 192 197 134 106 116 112 122 124 135 138 161 177 163 164 184 293 302 268 190 199 175 152 143 143 132 121 106 52 35 48
191 195 194 188 185 177 177 174 174 175 173 167 168 166 165 167 162 166 170 169 170 168 170 166 167 167 167 168 170 172 168 168 171 171 172 173 168 164 166 171 170 176 184 173 113 114 137 136 128 134 142 150 169 157 168 169 151 140 145 141 151 84 156 180 173 160 161 169 164 159 173 163 145 120
191 189 190 181 181 181 177 175 174 175 171 171 167 165 170 170 174 175 172 171 171 175 172 171 170 171 172 172 171 175 175 168 168 170 174 173 171 168 165 170 170 162 143 128 131 128 134 143 147 151 157 177 166 163 165 141 154 155 140 140 176 170 157 64 73 150 163 182 162 124 118 139 144 150
187 188 186 183 184 180 180 178 176 175 173 170 170 173 175 176 178 175 177 174 176 173 173 174 173 174 172 173 175 181 178 163 166 173 169 167 169 167 169 168 158 152 148 146 133 127 140 139 144 149 149 157 167 169 155 153 146 137 143 153 163 165 137 156 147 145 153 296 339 313 197 191 194 233